Total_Precipitation_Accumulation
0.00 0.00 0.00 0.00 0.01 0.01 0.01 0.01 0.05 0.01 0.02 0.05 0.11 0.19 0.24 0.35 0.33 0.35 0.26 0.18 0.12 0.12 0.05 0.01 0.00 0.00 0.00 0.02 0.02 0.06 0.06 0.04 0.04 0.15 0.19 0.20 0.55 0.47 0.39 0.36 0.46 0.66 0.53 0.13
0.00 0.00 0.00 0.01 0.00 0.00 0.00 0.01 0.02 0.01 0.01 0.01 0.03 0.04 0.11 0.19 0.39 0.39 0.26 0.16 0.10 0.10 0.04 0.02 0.00 0.00 0.02 0.06 0.04 0.05 0.07 0.04 0.02 0.07 0.29 0.31 0.29 0.56 0.53 0.47 0.46 0.58 0.86 0.78
0.00 0.00 0.00 0.00 0.00 0.00 0.00 0.01 0.04 0.07 0.06 0.06 0.08 0.08 0.11 0.29 0.43 0.52 0.51 0.30 0.23 0.19 0.12 0.05 0.01 0.01 0.05 0.07 0.03 0.03 0.07 0.05 0.01 0.02 0.09 0.35 0.44 0.44 0.54 0.62 0.49 0.45 0.52 0.74
0.00 0.00 0.00 0.00 0.00 0.00 0.00 0.00 0.01 0.01 0.00 0.04 0.07 0.05 0.11 0.31 0.47 0.57 0.46 0.29 0.31 0.28 0.21 0.11 0.06 0.02 0.03 0.10 0.06 0.04 0.04 0.03 0.01 0.02 0.09 0.24 0.48 0.46 0.50 0.46 0.46 0.42 0.41 0.50
0.00 0.00 0.00 0.00 0.00 0.00 0.00 0.00 0.00 0.00 0.00 0.01 0.00 0.00 0.01 0.02 0.21 0.54 0.62 0.41 0.45 0.51 0.35 0.20 0.11 0.06 0.04 0.07 0.06 0.03 0.01 0.01 0.01 0.03 0.12 0.15 0.33 0.40 0.39 0.42 0.46 0.42 0.35 0.42
0.00 0.00 0.00 0.00 0.00 0.00 0.00 0.00 0.00 0.00 0.02 0.04 0.05 0.10 0.04 0.08 0.22 0.42 0.54 0.64 0.70 0.51 0.21 0.20 0.17 0.16 0.05 0.04 0.02 0.01 0.00 0.00 0.01 0.03 0.09 0.12 0.20 0.29 0.23 0.28 0.28 0.32 0.37 0.35
0.00 0.00 0.00 0.00 0.00 0.00 0.00 0.00 0.00 0.00 0.03 0.06 0.12 0.18 0.16 0.12 0.17 0.35 0.50 0.69 0.67 0.38 0.29 0.34 0.41 0.28 0.12 0.06 0.02 0.02 0.01 0.00 0.01 0.05 0.05 0.13 0.20 0.30 0.20 0.21 0.25 0.30 0.33 0.35
0.00 0.00 0.00 0.00 0.00 0.00 0.00 0.00 0.00 0.01 0.02 0.05 0.04 0.03 0.03 0.07 0.13 0.33 0.54 0.80 0.89 0.56 0.51 0.68 0.47 0.21 0.19 0.10 0.03 0.02 0.01 0.01 0.00 0.03 0.04 0.07 0.18 0.26 0.22 0.18 0.18 0.23 0.27 0.35
0.00 0.00 0.00 0.00 0.00 0.00 0.00 0.00 0.00 0.04 0.02 0.03 0.04 0.05 0.04 0.06 0.08 0.23 0.56 0.91 1.10 0.84 0.75 0.45 0.32 0.26 0.22 0.16 0.03 0.00 0.01 0.01 0.01 0.03 0.07 0.05 0.15 0.20 0.16 0.16 0.17 0.13 0.15 0.15
0.00 0.00 0.00 0.00 0.00 0.00 0.00 0.00 0.00 0.02 0.03 0.02 0.04 0.04 0.04 0.03 0.06 0.14 0.34 0.83 1.14 0.83 0.65 0.44 0.33 0.41 0.29 0.24 0.05 0.01 0.01 0.02 0.04 0.06 0.10 0.09 0.17 0.29 0.22 0.15 0.09 0.08 0.09 0.08
0.00 0.00 0.00 0.00 0.00 0.00 0.00 0.00 0.00 0.00 0.01 0.01 0.02 0.01 0.03 0.03 0.06 0.13 0.24 0.60 0.83 0.93 0.80 0.46 0.38 0.42 0.40 0.36 0.20 0.07 0.02 0.02 0.04 0.08 0.07 0.09 0.19 0.28 0.23 0.13 0.06 0.05 0.02 0.02
0.00 0.00 0.00 0.00 0.00 0.00 0.00 0.00 0.00 0.02 0.02 0.00 0.01 0.02 0.01 0.01 0.02 0.10 0.19 0.38 0.59 0.72 0.62 0.56 0.48 0.44 0.41 0.40 0.39 0.18 0.05 0.02 0.04 0.06 0.07 0.07 0.16 0.21 0.23 0.11 0.07 0.05 0.05 0.04
0.00 0.00 0.00 0.00 0.00 0.00 0.00 0.00 0.01 0.01 0.01 0.02 0.00 0.01 0.01 0.01 0.01 0.02 0.07 0.16 0.21 0.35 0.49 0.50 0.40 0.39 0.25 0.42 0.46 0.35 0.12 0.04 0.04 0.06 0.07 0.10 0.11 0.10 0.07 0.05 0.10 0.10 0.14 0.08
0.00 0.00 0.00 0.00 0.00 0.00 0.00 0.00 0.00 0.00 0.00 0.00 0.00 0.00 0.00 0.00 0.00 0.00 0.02 0.07 0.10 0.15 0.30 0.41 0.40 0.32 0.30 0.31 0.29 0.34 0.29 0.14 0.05 0.02 0.04 0.07 0.10 0.08 0.07 0.03 0.05 0.02 0.05 0.07
0.00 0.00 0.00 0.00 0.00 0.00 0.00 0.00 0.00 0.00 0.00 0.00 0.00 0.00 0.01 0.01 0.00 0.01 0.00 0.01 0.02 0.04 0.09 0.19 0.27 0.22 0.29 0.22 0.26 0.34 0.28 0.15 0.10 0.04 0.06 0.13 0.12 0.07 0.07 0.06 0.07 0.01 0.01 0.03
0.00 0.00 0.00 0.00 0.00 0.00 0.00 0.00 0.00 0.00 0.00 0.00 0.00 0.00 0.00 0.00 0.00 0.00 0.00 0.00 0.01 0.02 0.03 0.07 0.07 0.05 0.09 0.12 0.16 0.23 0.17 0.23 0.22 0.12 0.06 0.13 0.09 0.10 0.10 0.05 0.06 0.07 0.05 0.02
0.00 0.00 0.00 0.00 0.00 0.00 0.00 0.00 0.01 0.01 0.01 0.00 0.01 0.01 0.00 0.00 0.00 0.00 0.00 0.00 0.00 0.01 0.01 0.02 0.02 0.01 0.01 0.03 0.07 0.07 0.14 0.11 0.14 0.16 0.13 0.07 0.08 0.15 0.15 0.04 0.06 0.15 0.13 0.10
0.00 0.00 0.00 0.00 0.00 0.00 0.00 0.00 0.00 0.00 0.01 0.01 0.00 0.00 0.00 0.01 0.01 0.01 0.00 0.00 0.00 0.00 0.00 0.01 0.02 0.00 0.00 0.00 0.00 0.02 0.06 0.04 0.03 0.05 0.06 0.04 0.05 0.04 0.10 0.11 0.08 0.06 0.07 0.12
0.00 0.00 0.00 0.00 0.00 0.01 0.01 0.00 0.00 0.00 0.00 0.00 0.00 0.00 0.00 0.00 0.01 0.00 0.00 0.00 0.00 0.01 0.01 0.01 0.00 0.00 0.00 0.00 0.00 0.00 0.00 0.01 0.00 0.01 0.01 0.03 0.05 0.05 0.11 0.10 0.10 0.14 0.11 0.09
0.00 0.00 0.00 0.00 0.00 0.00 0.00 0.00 0.00 0.00 0.00 0.00 0.00 0.00 0.00 0.00 0.00 0.00 0.00 0.00 0.02 0.06 0.02 0.01 0.00 0.00 0.00 0.01 0.00 0.00 0.00 0.00 0.01 0.01 0.02 0.02 0.03 0.06 0.09 0.16 0.10 0.14 0.24 0.21
0.00 0.00 0.00 0.00 0.00 0.00 0.00 0.00 0.00 0.00 0.00 0.00 0.00 0.00 0.00 0.00 0.00 0.00 0.00 0.00 0.01 0.03 0.01 0.01 0.01 0.01 0.01 0.01 0.01 0.00 0.00 0.00 0.01 0.01 0.03 0.05 0.06 0.08 0.08 0.11 0.12 0.08 0.13 0.16
0.00 0.00 0.00 0.00 0.00 0.00 0.00 0.00 0.00 0.00 0.00 0.00 0.00 0.00 0.00 0.00 0.00 0.00 0.00 0.02 0.01 0.02 0.01 0.01 0.02 0.02 0.02 0.01 0.01 0.01 0.01 0.01 0.01 0.02 0.03 0.05 0.06 0.06 0.07 0.07 0.07 0.07 0.05 0.06
0.00 0.00 0.00 0.00 0.00 0.00 0.00 0.00 0.00 0.01 0.00 0.00 0.00 0.00 0.00 0.00 0.00 0.01 0.00 0.00 0.01 0.02 0.01 0.03 0.04 0.03 0.03 0.02 0.02 0.02 0.02 0.02 0.02 0.03 0.04 0.05 0.06 0.07 0.07 0.07 0.07 0.06 0.06 0.05
0.00 0.00 0.00 0.00 0.00 0.00 0.00 0.00 0.00 0.01 0.01 0.00 0.00 0.00 0.00 0.00 0.00 0.00 0.00 0.00 0.00 0.01 0.02 0.05 0.04 0.04 0.03 0.03 0.04 0.04 0.04 0.04 0.04 0.05 0.07 0.08 0.09 0.09 0.08 0.07 0.06 0.06 0.06 0.05
0.00 0.00 0.00 0.00 0.00 0.00 0.00 0.00 0.00 0.00 0.01 0.00 0.00 0.00 0.00 0.00 0.00 0.00 0.00 0.00 0.00 0.00 0.01 0.03 0.04 0.05 0.04 0.05 0.05 0.04 0.06 0.07 0.08 0.07 0.09 0.09 0.10 0.11 0.10 0.10 0.08 0.07 0.06 0.06
0.00 0.00 0.00 0.00 0.00 0.00 0.00 0.00 0.00 0.00 0.01 0.01 0.00 0.00 0.00 0.00 0.00 0.00 0.00 0.00 0.00 0.00 0.00 0.00 0.02 0.04 0.05 0.06 0.06 0.07 0.07 0.08 0.09 0.09 0.09 0.11 0.10 0.10 0.10 0.09 0.09 0.08 0.06 0.05
0.00 0.00 0.00 0.00 0.00 0.00 0.00 0.01 0.01 0.01 0.01 0.02 0.02 0.01 0.00 0.00 0.00 0.00 0.00 0.00 0.00 0.00 0.00 0.00 0.00 0.01 0.02 0.04 0.04 0.04 0.04 0.05 0.07 0.07 0.08 0.09 0.10 0.09 0.09 0.08 0.07 0.06 0.05 0.03